星链-36157(STARLINK-36157)

导读

STARLINK-36157是美国SpaceX星链星座的成员卫星,于2025年12月7日发射升空,属于星链互联网星座组网卫星。星链项目旨在为全球提供低延迟、高速率的宽带互联网覆盖,这颗卫星延续了星链标准设计,依托低轨轨道部署,服务全球偏远区域网络接入,并支撑后续星座容量升级,进一步完善美国星链的全球服务覆盖能力。

基本信息
目录编号:
66933
目录名称:
STARLINK-36157
国际标识:
2025-286J
轨道中心:
EARTH
卫星名称:
星链-36157
卫星全名:
星链-36157(STARLINK-36157)
卫星状态:
在轨 (已飞行188 天)
发射日期:
2025-12-07 UTC
国别 :
美国 (US)
星等 :
--
轨道信息
数据来源 国际轨道数据
星历时间: 2026-06-12T09:09:25+0800
1天前
查看轨道信息
半长轴: 6840.851km
偏心率: 0.0000842
轨道倾角: 53.158°
近地点辐角 88.904°
升交点赤经 279.445°
平近点角 271.206°
近地点: 462.138km
远地点: 463.29km
周期: 93.848分钟
每日圈数: 15.343966
详细信息
固有亮度:
5
最大亮度:
2.5
卫星平台:
Starlink V1.0
覆盖范围:
全球
运营商:
太空探索技术公司
运营商所在国:
美国
制造商(研发单位):
太空探索技术公司
制造商所在国:
美国
使用方式:
暂无
卫星简介
Starlink 计划是 SpaceX 推出的全球卫星互联网项目,通过发射低轨道卫星,为全球尤其是偏远地区提供高速、低延迟的互联网服务。自 2019 年起,Starlink 已部署数千颗卫星,旨在缩小全球数字鸿沟,推动互联网普及。该项目还为军事、航空等行业提供通信支持,带来广泛经济效益。
2D轨道图
3D轨道图
轨道高度分析图
轨道倾角分析图
轨道综合分析图
查看轨道综合分析图